DELTA 1 DEB

Satellite information

Favourite Embed

Satellite Type and Status

DEBRISIN ORBIT

Key statistics

Satellite DELTA 1 DEB at a glance.

Uptime

17451

Days in orbit

Revolutions

≈ 13.9

Per day

Orbit

SSO

Sun Synchronous Orbit

Inclination

98.8

Latest

Satellite identification and parameters

Extended collection of information and parameters for DELTA 1 DEB.

Object identification

Identified? True

Debris? True

Object name: DELTA 1 DEB

International designator: 1978-026FL

Object number (NORAD): 13573

Object ID (CCSDS): 13573

Country: UNITED STATES OF AMERICA (US)

Current information (Y/N): Y

RCS size: SMALL

Orbital parameters

Period: 103.67 minutes

Inclination: 98.8192 deg

SMA: 7310.185 km

Apoapsis: 985.624 km

Periapsis: 878.476 km

RAAN: 206.9562 deg

Eccentricy: 0.00732868

Argument of periapsis: 60.2345 deg

Mean anomaly: 0.5334 deg

Mean motion: 13.89025607 rev/day

Mean motion (dot): 0.0000014 rev/day2

B* drag term: 0.00014605536 1/REarth

Two-line elements (TLE)

Creation date: Dec. 14, 2025, 3:07 a.m.

Reference frame: TEME

Reference center: EARTH

Epoch: Dec. 13, 2025, 1:13 p.m. UTC

TLE line 0: 0 DELTA 1 DEB

TLE line 1: 1 13573U 78026FL 25347.55072918 .00000140 00000-0 14606-3 0 9995

TLE line 2: 2 13573 98.8192 206.9562 0073287 60.2345 0.5334 13.89025607257555

Live tracking on map

Real-time ground track for satellite DELTA 1 DEB.

In-orbit conjunctions

A list of the most updated potential collisions computed for object DELTA 1 DEB.

Target Orbit TCA Probability of collision Miss distance Type
CZ-4C R/B LEO 2025-07-06 17:00:57 0.0004609706 75.0 (m) ROCKET BODY
SCOUT A DEB SSO 2024-10-10 15:32:59 0.0001056806 362.0 (m) DEBRIS

Associated space launch

Earth observation satellite

DELTA 1 DEB was lifted into orbit during the mission ‘Delta 2910 | Landsat 3’, on board a Delta 2910 space rocket.

The launch took place on March 5, 1978, 5:54 p.m. from Space Launch Complex 2W.

For more information about the launch, click the button.

Launch to space Delta 2910 | Landsat 3
Delta 2910 | Landsat 3

Agency: N/A

Status: Launch Successful

Launch date: March 5, 1978, 5:54 p.m. UTC

Rocket: Delta 2910

Launch pad: Space Launch Complex 2W

Location: Vandenberg SFB, CA, USA

...

Latest news about this satellite

There are no fresh news available about this satellite. Check back as we update our databases every day.


Newsletter sign-up

Weekly statistics, charts and insights to help you stay on top of the space industry.